Burlington, CO

6:21 PM MDT on May 22, 2017 (GMT -0600)
Kit Carson County

Weather History for KITR - April, 2013

Change the Weather History Date:

Monday, April 15, 2013

  Actual Average Record
Temperature  
Mean Temperature 42 °F 48 °F  
Max Temperature 54 °F 62 °F 90 °F (1955)
Min Temperature 29 °F 33 °F 19 °F (1905)
Degree Days  
Heating Degree Days 24    
Moisture  
Dew Point 19 °F    
Average Humidity 45    
Maximum Humidity 69    
Minimum Humidity 27    
Precipitation  
Precipitation 0.00 in 0.05 in 3.22 in (1921)
Month to date precipitation 0.05 0.54  
Year to date precipitation 2.64 2.23  
Sea Level Pressure  
Sea Level Pressure 29.83 in    
Wind  
Wind Speed 10 mph (ENE)    
Max Wind Speed 26 mph    
Max Gust Speed 31 mph    
Visibility 10 miles    
Events      
T = Trace of Precipitation, MM = Missing Value Source: NWS Daily Summary

Daily Weather History Graph

Daily Weather History Graph

Search for Another Location

Airport or City:

Trip Planner

Search our weather history database for the weather conditions in past years. The results will help you decide how hot, cold, wet, or windy it might be!

Date:

Astronomy

Apr. 15, 2013 Rise Set
Actual Time 6:11 AM MDT 7:26 PM MDT
Civil Twilight 5:44 AM MDT 7:54 PM MDT
Nautical Twilight 5:11 AM MDT 8:28 PM MDT
Astronomical Twilight 4:36 AM MDT 9:02 PM MDT
Moon 9:40 AM MDT (4/15) No Moon Set
Length of Visible Light 14h 10m
Length of Day
13h 15m
Waxing Crescent, 25% of the Moon is Illuminated
Apr 15
Waxing Crescent
Apr 18
First Quarter
Apr 25
Full
May 2
Last Quarter
May 9
New

Hourly Weather History & Observations

Time (MDT) Temp. Windchill Dew Point Humidity Pressure Visibility Wind Dir Wind Speed Gust Speed Precip Events Conditions
12:53 AM 37.9 °F 34.4 °F 12.9 °F 36% 29.72 in 10.0 mi North 4.6 mph - N/A   Clear
1:53 AM 33.1 °F - 12.9 °F 43% 29.73 in 10.0 mi Calm Calm - N/A   Clear
2:53 AM 32.0 °F - 16.0 °F 52% 29.74 in 10.0 mi Calm Calm - N/A   Scattered Clouds
3:53 AM 35.1 °F 27.9 °F 19.0 °F 52% 29.78 in 10.0 mi NNE 9.2 mph - N/A   Overcast
4:53 AM 34.0 °F 25.0 °F 23.0 °F 64% 29.78 in 10.0 mi NNE 12.7 mph - N/A   Overcast
5:53 AM 32.0 °F 24.2 °F 21.9 °F 66% 29.78 in 10.0 mi NE 9.2 mph - N/A   Mostly Cloudy
6:53 AM 28.9 °F 20.4 °F 19.9 °F 69% 29.82 in 10.0 mi NE 9.2 mph - N/A   Clear
7:53 AM 34.0 °F 26.0 °F 19.9 °F 56% 29.85 in 10.0 mi NE 10.4 mph - N/A   Clear
8:53 AM 37.0 °F 28.1 °F 19.9 °F 50% 29.87 in 10.0 mi NE 15.0 mph - N/A   Clear
9:53 AM 41.0 °F 33.5 °F 18.0 °F 40% 29.85 in 10.0 mi NE 13.8 mph 24.2 mph N/A   Clear
10:53 AM 43.0 °F 35.7 °F 18.0 °F 37% 29.84 in 10.0 mi ENE 15.0 mph - N/A   Clear
11:53 AM 46.0 °F 41.4 °F 19.0 °F 34% 29.81 in 10.0 mi East 9.2 mph 24.2 mph N/A   Clear
12:53 PM 46.9 °F - 18.0 °F 32% 29.79 in 10.0 mi SSE 11.5 mph 25.3 mph N/A   Partly Cloudy
1:53 PM 48.0 °F - 19.0 °F 32% 29.78 in 10.0 mi SE 10.4 mph 28.8 mph N/A   Partly Cloudy
2:53 PM 52.0 °F - 19.0 °F 27% 29.78 in 10.0 mi SE 16.1 mph 23.0 mph N/A   Partly Cloudy
3:53 PM 53.1 °F - 19.9 °F 27% 29.76 in 10.0 mi East 17.3 mph 25.3 mph N/A   Clear
4:53 PM 52.0 °F - 19.9 °F 28% 29.77 in 10.0 mi East 20.7 mph 29.9 mph N/A   Clear
5:53 PM 48.0 °F - 19.0 °F 32% 29.80 in 10.0 mi ENE 26.5 mph 31.1 mph N/A   Clear
6:53 PM 44.1 °F 35.4 °F 18.0 °F 35% 29.85 in 10.0 mi ENE 21.9 mph - N/A   Clear
7:53 PM 39.0 °F 28.8 °F 18.0 °F 43% 29.87 in 10.0 mi ENE 21.9 mph - N/A   Clear
8:53 PM 36.0 °F 26.7 °F 19.9 °F 52% 29.94 in 10.0 mi ENE 15.0 mph - N/A   Partly Cloudy
9:53 PM 34.0 °F 24.2 °F 21.9 °F 61% 29.97 in 10.0 mi NE 15.0 mph - N/A   Mostly Cloudy
10:53 PM 35.1 °F 25.2 °F 23.0 °F 61% 29.99 in 10.0 mi NE 16.1 mph - N/A   Overcast
11:53 PM 35.1 °F 27.4 °F 23.0 °F 61% 30.01 in 10.0 mi ENE 10.4 mph - N/A   Overcast